| time (UTC) | temp C | wind direction | speed KPH | gust KPH | rain 1hr cm | rain 24hr cm | rain mn cm | humidity % | barometer mb |
| 20260504130507 | 13 | 247 | 0.0 | 3.2 | 0.00 | 0.00 | 0.00 | 49 | 1017.9 |
| 20260504110549 | 6 | 3 | 1.6 | 6.4 | 0.00 | 0.00 | 0.00 | 70 | 1017.9 |
| 20260504100546 | 8 | 320 | 0.0 | 3.2 | 0.00 | 0.00 | 0.00 | 64 | 1017.6 |
| 20260504081544 | 2 | 236 | 0.0 | 4.8 | 0.00 | 0.00 | 0.00 | 80 | 1017.6 |
| 20260504081031 | 2 | 88 | 0.0 | 4.8 | 0.00 | 0.00 | 0.00 | 79 | 1017.6 |
| 20260504080530 | 2 | 106 | 0.0 | 3.2 | 0.00 | 0.00 | 0.00 | 78 | 1017.6 |
| 20260504050506 | 5 | 120 | 0.0 | 1.6 | 0.00 | 0.00 | 0.00 | 64 | 1018.4 |
| 20260504050013 | 5 | 119 | 0.0 | 1.6 | 0.00 | 0.00 | 0.00 | 65 | 1018.4 |
| 20260504045505 | 5 | 119 | 0.0 | 1.6 | 0.00 | 0.00 | 0.00 | 65 | 1018.4 |
| 20260504045005 | 5 | 119 | 0.0 | 1.6 | 0.00 | 0.00 | 0.00 | 65 | 1018.5 |
| 20260504044504 | 5 | 143 | 0.0 | 1.6 | 0.00 | 0.00 | 0.00 | 65 | 1018.4 |
| 20260504044003 | 5 | 120 | 0.0 | 1.6 | 0.00 | 0.00 | 0.00 | 65 | 1018.4 |
| 20260504043503 | 5 | 120 | 0.0 | 1.6 | 0.00 | 0.00 | 0.00 | 66 | 1018.3 |
| 20260504043003 | 5 | 120 | 0.0 | 1.6 | 0.00 | 0.00 | 0.00 | 65 | 1018.4 |
| 20260504042503 | 5 | 181 | 0.0 | 0.0 | 0.00 | 0.00 | 0.00 | 65 | 1018.4 |
| 20260504042005 | 5 | 181 | 0.0 | 0.0 | 0.00 | 0.00 | 0.00 | 65 | 1018.4 |
| 20260504041501 | 5 | 181 | 0.0 | 1.6 | 0.00 | 0.00 | 0.00 | 65 | 1018.3 |
| 20260504041100 | 5 | 181 | 0.0 | 1.6 | 0.00 | 0.00 | 0.00 | 65 | 1018.4 |
| 20260504040558 | 5 | 183 | 0.0 | 1.6 | 0.00 | 0.00 | 0.00 | 66 | 1018.3 |
| 20260504040057 | 5 | 183 | 0.0 | 1.6 | 0.00 | 0.00 | 0.00 | 64 | 1018.2 |
| 20260504035557 | 5 | 160 | 0.0 | 1.6 | 0.00 | 0.00 | 0.00 | 64 | 1018.4 |
| 20260504035057 | 6 | 112 | 1.6 | 1.6 | 0.00 | 0.00 | 0.00 | 61 | 1018.3 |
| 20260504034557 | 6 | 234 | 0.0 | 1.6 | 0.00 | 0.00 | 0.00 | 59 | 1018.2 |
| 20260504034056 | 7 | 234 | 0.0 | 1.6 | 0.00 | 0.00 | 0.00 | 57 | 1018.3 |
| 20260504033557 | 7 | 234 | 0.0 | 4.8 | 0.00 | 0.00 | 0.00 | 56 | 1018.2 |
| 20260504033101 | 7 | 218 | 0.0 | 6.4 | 0.00 | 0.00 | 0.00 | 55 | 1018.2 |
| 20260504032556 | 7 | 233 | 1.6 | 6.4 | 0.00 | 0.00 | 0.00 | 55 | 1018.2 |
| 20260504032056 | 7 | 212 | 1.6 | 3.2 | 0.00 | 0.00 | 0.00 | 55 | 1018.1 |
| 20260504031557 | 7 | 174 | 0.0 | 4.8 | 0.00 | 0.00 | 0.00 | 55 | 1018.1 |
| 20260504031056 | 7 | 217 | 0.0 | 4.8 | 0.00 | 0.00 | 0.00 | 54 | 1018.1 |
| 20260504030558 | 7 | 221 | 1.6 | 4.8 | 0.00 | 0.00 | 0.00 | 53 | 1018.2 |
| 20260504030055 | 7 | 230 | 0.0 | 6.4 | 0.00 | 0.00 | 0.00 | 52 | 1018.1 |
| 20260504025555 | 7 | 226 | 1.6 | 6.4 | 0.00 | 0.00 | 0.00 | 52 | 1018.2 |
| 20260504025055 | 7 | 188 | 1.6 | 4.8 | 0.00 | 0.00 | 0.00 | 51 | 1018.3 |
| 20260504024555 | 7 | 169 | 1.6 | 4.8 | 0.00 | 0.00 | 0.00 | 51 | 1018.4 |
| 20260504024057 | 7 | 136 | 1.6 | 4.8 | 0.00 | 0.00 | 0.00 | 50 | 1018.4 |
| 20260504023554 | 8 | 189 | 1.6 | 4.8 | 0.00 | 0.00 | 0.00 | 49 | 1018.4 |
| 20260504023054 | 8 | 233 | 1.6 | 4.8 | 0.00 | 0.00 | 0.00 | 48 | 1018.5 |
| 20260504022554 | 8 | 233 | 0.0 | 4.8 | 0.00 | 0.00 | 0.00 | 48 | 1018.4 |
| 20260504022054 | 7 | 151 | 1.6 | 4.8 | 0.00 | 0.00 | 0.00 | 49 | 1018.4 |
| 20260504021555 | 7 | 175 | 1.6 | 3.2 | 0.00 | 0.00 | 0.00 | 48 | 1018.4 |
| 20260504021053 | 8 | 127 | 1.6 | 6.4 | 0.00 | 0.00 | 0.00 | 48 | 1018.3 |
| 20260504020553 | 8 | 163 | 1.6 | 6.4 | 0.00 | 0.00 | 0.00 | 48 | 1018.2 |
| 20260504020128 | 8 | 223 | 1.6 | 6.4 | 0.00 | 0.00 | 0.00 | 48 | 1018.1 |
| 20260504015553 | 7 | 153 | 1.6 | 6.4 | 0.00 | 0.00 | 0.00 | 48 | 1018.0 |
| 20260504015053 | 8 | 109 | 1.6 | 6.4 | 0.00 | 0.00 | 0.00 | 48 | 1018.0 |
| 20260504014602 | 8 | 103 | 1.6 | 6.4 | 0.00 | 0.00 | 0.00 | 48 | 1018.0 |
| 20260504014051 | 8 | 117 | 1.6 | 4.8 | 0.00 | 0.00 | 0.00 | 47 | 1017.9 |
| 20260504013552 | 8 | 131 | 0.0 | 4.8 | 0.00 | 0.00 | 0.00 | 46 | 1017.9 |
| 20260504013106 | 8 | 100 | 1.6 | 4.8 | 0.00 | 0.00 | 0.00 | 46 | 1017.9 |
| 20260504012552 | 8 | 227 | 0.0 | 1.6 | 0.00 | 0.00 | 0.00 | 45 | 1017.9 |
| 20260504012055 | 8 | 231 | 0.0 | 4.8 | 0.00 | 0.00 | 0.00 | 43 | 1017.8 |
| 20260504011552 | 9 | 230 | 1.6 | 4.8 | 0.00 | 0.00 | 0.00 | 43 | 1017.7 |
| 20260504011052 | 9 | 162 | 0.0 | 4.8 | 0.00 | 0.00 | 0.00 | 44 | 1017.8 |
| 20260504010550 | 9 | 133 | 1.6 | 3.2 | 0.00 | 0.00 | 0.00 | 44 | 1017.7 |
| 20260504010050 | 9 | 149 | 1.6 | 3.2 | 0.00 | 0.00 | 0.00 | 44 | 1017.5 |
| 20260504005550 | 9 | 150 | 0.0 | 3.2 | 0.00 | 0.00 | 0.00 | 44 | 1017.5 |
| 20260504005050 | 10 | 151 | 0.0 | 6.4 | 0.00 | 0.00 | 0.00 | 42 | 1017.6 |
| 20260504004619 | 10 | 164 | 1.6 | 6.4 | 0.00 | 0.00 | 0.00 | 42 | 1017.5 |
| 20260504004049 | 10 | 151 | 1.6 | 9.7 | 0.00 | 0.00 | 0.00 | 40 | 1017.4 |
| 20260504003549 | 11 | 248 | 1.6 | 8.0 | 0.00 | 0.00 | 0.00 | 37 | 1017.3 |
| 20260504003053 | 11 | 212 | 0.0 | 6.4 | 0.00 | 0.00 | 0.00 | 37 | 1017.3 |
| 20260504002549 | 11 | 252 | 3.2 | 9.7 | 0.00 | 0.00 | 0.00 | 37 | 1017.3 |
| 20260504002049 | 11 | 236 | 1.6 | 9.7 | 0.00 | 0.00 | 0.00 | 37 | 1017.2 |
| 20260504001618 | 11 | 288 | 3.2 | 11.3 | 0.00 | 0.00 | 0.00 | 36 | 1017.2 |
| 20260504001050 | 11 | 245 | 3.2 | 11.3 | 0.00 | 0.00 | 0.00 | 35 | 1017.1 |
| 20260504000549 | 12 | 235 | 3.2 | 9.7 | 0.00 | 0.00 | 0.00 | 35 | 1017.2 |
| 20260504000053 | 12 | 218 | 1.6 | 9.7 | 0.00 | 0.00 | 0.00 | 34 | 1017.1 |
| 20260503235548 | 12 | 334 | 1.6 | 9.7 | 0.00 | 0.00 | 0.00 | 33 | 1017.1 |
| 20260503235049 | 12 | 283 | 1.6 | 11.3 | 0.00 | 0.00 | 0.00 | 32 | 1017.0 |
| 20260503234548 | 12 | 295 | 4.8 | 11.3 | 0.00 | 0.00 | 0.00 | 32 | 1017.0 |
| 20260503234047 | 13 | 290 | 1.6 | 16.1 | 0.00 | 0.00 | 0.00 | 32 | 1017.0 |
| 20260503233546 | 13 | 261 | 1.6 | 14.5 | 0.00 | 0.00 | 0.00 | 32 | 1017.0 |
| 20260503233047 | 13 | 232 | 4.8 | 16.1 | 0.00 | 0.00 | 0.00 | 31 | 1017.0 |
| 20260503232547 | 13 | 258 | 3.2 | 16.1 | 0.00 | 0.00 | 0.00 | 31 | 1016.9 |
| 20260503232046 | 13 | 300 | 1.6 | 17.7 | 0.00 | 0.00 | 0.00 | 31 | 1016.9 |
| 20260503231546 | 13 | 278 | 1.6 | 17.7 | 0.00 | 0.00 | 0.00 | 30 | 1016.9 |
| 20260503231047 | 13 | 350 | 3.2 | 17.7 | 0.00 | 0.00 | 0.00 | 30 | 1016.8 |
| 20260503230546 | 13 | 1 | 3.2 | 17.7 | 0.00 | 0.00 | 0.00 | 29 | 1017.0 |
| 20260503230107 | 13 | 252 | 8.0 | 17.7 | 0.00 | 0.00 | 0.00 | 29 | 1016.9 |
| 20260503225545 | 13 | 314 | 8.0 | 17.7 | 0.00 | 0.00 | 0.00 | 28 | 1017.0 |
| 20260503225045 | 13 | 25 | 4.8 | 12.9 | 0.00 | 0.00 | 0.00 | 27 | 1017.0 |
| 20260503224545 | 13 | 303 | 6.4 | 20.9 | 0.00 | 0.00 | 0.00 | 28 | 1017.0 |
| 20260503224045 | 13 | 330 | 6.4 | 20.9 | 0.00 | 0.00 | 0.00 | 28 | 1017.1 |
| 20260503223544 | 14 | 328 | 8.0 | 16.1 | 0.00 | 0.00 | 0.00 | 27 | 1017.0 |
| 20260503223046 | 14 | 308 | 3.2 | 16.1 | 0.00 | 0.00 | 0.00 | 27 | 1017.2 |
| 20260503222544 | 14 | 226 | 4.8 | 16.1 | 0.00 | 0.00 | 0.00 | 26 | 1017.1 |
| 20260503222044 | 13 | 19 | 4.8 | 22.5 | 0.00 | 0.00 | 0.00 | 26 | 1017.1 |
| 20260503221544 | 14 | 121 | 11.3 | 22.5 | 0.00 | 0.00 | 0.00 | 26 | 1017.3 |
| 20260503221044 | 14 | 284 | 6.4 | 22.5 | 0.00 | 0.00 | 0.00 | 25 | 1017.3 |
| 20260503220544 | 14 | 356 | 6.4 | 22.5 | 0.00 | 0.00 | 0.00 | 25 | 1017.2 |
| 20260503220048 | 14 | 19 | 11.3 | 22.5 | 0.00 | 0.00 | 0.00 | 25 | 1017.2 |
| 20260503215543 | 15 | 304 | 4.8 | 17.7 | 0.00 | 0.00 | 0.00 | 25 | 1017.2 |
| 20260503215042 | 14 | 247 | 4.8 | 20.9 | 0.00 | 0.00 | 0.00 | 24 | 1017.2 |
| 20260503214544 | 14 | 1 | 11.3 | 22.5 | 0.00 | 0.00 | 0.00 | 23 | 1017.3 |
| 20260503214043 | 14 | 4 | 4.8 | 22.5 | 0.00 | 0.00 | 0.00 | 24 | 1017.3 |
| 20260503213544 | 14 | 148 | 8.0 | 19.3 | 0.00 | 0.00 | 0.00 | 24 | 1017.3 |
| 20260503213044 | 14 | 104 | 6.4 | 22.5 | 0.00 | 0.00 | 0.00 | 24 | 1017.4 |
| 20260503212543 | 14 | 233 | 6.4 | 22.5 | 0.00 | 0.00 | 0.00 | 24 | 1017.4 |
| 20260503212042 | 14 | 65 | 3.2 | 22.5 | 0.00 | 0.00 | 0.00 | 24 | 1017.5 |
| 20260503211542 | 14 | 307 | 6.4 | 25.7 | 0.00 | 0.00 | 0.00 | 24 | 1017.5 |
| 20260503211041 | 15 | 300 | 11.3 | 25.7 | 0.00 | 0.00 | 0.00 | 23 | 1017.5 |
| 20260503210541 | 15 | 54 | 6.4 | 19.3 | 0.00 | 0.00 | 0.00 | 22 | 1017.6 |
| 20260503210041 | 15 | 132 | 6.4 | 20.9 | 0.00 | 0.00 | 0.00 | 22 | 1017.7 |
| 20260503205542 | 15 | 260 | 6.4 | 20.9 | 0.00 | 0.00 | 0.00 | 23 | 1017.8 |
| 20260503205041 | 14 | 219 | 4.8 | 19.3 | 0.00 | 0.00 | 0.00 | 23 | 1017.8 |
| 20260503204540 | 14 | 335 | 3.2 | 16.1 | 0.00 | 0.00 | 0.00 | 24 | 1017.9 |
| 20260503204040 | 15 | 248 | 8.0 | 17.7 | 0.00 | 0.00 | 0.00 | 22 | 1017.9 |
| 20260503203539 | 14 | 257 | 9.7 | 17.7 | 0.00 | 0.00 | 0.00 | 20 | 1018.1 |
| 20260503203057 | 15 | 286 | 8.0 | 17.7 | 0.00 | 0.00 | 0.00 | 22 | 1018.0 |
| 20260503202539 | 15 | 316 | 3.2 | 17.7 | 0.00 | 0.00 | 0.00 | 25 | 1018.0 |
| 20260503202041 | 15 | 281 | 4.8 | 17.7 | 0.00 | 0.00 | 0.00 | 25 | 1018.0 |
| 20260503201539 | 15 | 258 | 3.2 | 20.9 | 0.00 | 0.00 | 0.00 | 24 | 1018.1 |
| 20260503201038 | 15 | 286 | 6.4 | 20.9 | 0.00 | 0.00 | 0.00 | 26 | 1018.1 |
| 20260503200542 | 15 | 243 | 4.8 | 24.1 | 0.00 | 0.00 | 0.00 | 28 | 1018.0 |
| 20260503200038 | 15 | 273 | 11.3 | 24.1 | 0.00 | 0.00 | 0.00 | 25 | 1018.0 |
| 20260503195537 | 15 | 298 | 4.8 | 16.1 | 0.00 | 0.00 | 0.00 | 27 | 1018.2 |
| 20260503195038 | 15 | 108 | 0.0 | 9.7 | 0.00 | 0.00 | 0.00 | 28 | 1018.1 |
| 20260503194543 | 15 | 129 | 3.2 | 9.7 | 0.00 | 0.00 | 0.00 | 26 | 1018.2 |
| 20260503194038 | 15 | 224 | 4.8 | 16.1 | 0.00 | 0.00 | 0.00 | 27 | 1018.2 |
| 20260503193538 | 15 | 237 | 4.8 | 16.1 | 0.00 | 0.00 | 0.00 | 27 | 1018.2 |
| 20260503193039 | 15 | 212 | 1.6 | 9.7 | 0.00 | 0.00 | 0.00 | 27 | 1018.3 |
| 20260503192535 | 15 | 267 | 1.6 | 9.7 | 0.00 | 0.00 | 0.00 | 28 | 1018.3 |
| 20260503192036 | 15 | 149 | 1.6 | 14.5 | 0.00 | 0.00 | 0.00 | 28 | 1018.5 |
| 20260503191540 | 14 | 276 | 4.8 | 14.5 | 0.00 | 0.00 | 0.00 | 27 | 1018.6 |
| 20260503191033 | 14 | 226 | 6.4 | 14.5 | 0.00 | 0.00 | 0.00 | 30 | 1018.7 |
| 20260503190534 | 13 | 215 | 3.2 | 11.3 | 0.00 | 0.00 | 0.00 | 27 | 1018.6 |
| 20260503190039 | 13 | 353 | 3.2 | 19.3 | 0.00 | 0.00 | 0.00 | 26 | 1018.7 |
| 20260503185531 | 13 | 125 | 3.2 | 19.3 | 0.00 | 0.00 | 0.00 | 29 | 1018.8 |
| 20260503185034 | 13 | 323 | 6.4 | 19.3 | 0.00 | 0.00 | 0.00 | 28 | 1018.7 |
| 20260503184533 | 13 | 326 | 8.0 | 17.7 | 0.00 | 0.00 | 0.00 | 27 | 1018.6 |
| 20260503184032 | 13 | 205 | 3.2 | 17.7 | 0.00 | 0.00 | 0.00 | 28 | 1018.7 |
| 20260503183535 | 13 | 203 | 1.6 | 11.3 | 0.00 | 0.00 | 0.00 | 29 | 1018.8 |
| 20260503183032 | 12 | 86 | 6.4 | 16.1 | 0.00 | 0.00 | 0.00 | 27 | 1019.0 |
| 20260503182531 | 13 | 338 | 9.7 | 16.1 | 0.00 | 0.00 | 0.00 | 26 | 1019.1 |
| 20260503182031 | 12 | 283 | 3.2 | 16.1 | 0.00 | 0.00 | 0.00 | 26 | 1019.1 |
| 20260503181531 | 12 | 305 | 6.4 | 16.1 | 0.00 | 0.00 | 0.00 | 25 | 1019.2 |
| 20260503181030 | 13 | 344 | 4.8 | 12.9 | 0.00 | 0.00 | 0.00 | 26 | 1019.1 |
| 20260503180531 | 13 | 335 | 3.2 | 11.3 | 0.00 | 0.00 | 0.00 | 24 | 1019.2 |
| 20260503180034 | 13 | 330 | 6.4 | 9.7 | 0.00 | 0.00 | 0.00 | 25 | 1019.2 |
| 20260503175529 | 13 | 203 | 0.0 | 9.7 | 0.00 | 0.00 | 0.00 | 27 | 1019.1 |
| 20260503175027 | 12 | 192 | 1.6 | 19.3 | 0.00 | 0.00 | 0.00 | 27 | 1019.3 |
| 20260503174526 | 12 | 224 | 6.4 | 19.3 | 0.00 | 0.00 | 0.00 | 27 | 1019.5 |
| 20260503174030 | 12 | 203 | 3.2 | 17.7 | 0.00 | 0.00 | 0.00 | 26 | 1019.5 |
| 20260503173526 | 11 | 319 | 1.6 | 14.5 | 0.00 | 0.00 | 0.00 | 29 | 1019.5 |
| 20260503173026 | 11 | 65 | 6.4 | 16.1 | 0.00 | 0.00 | 0.00 | 25 | 1019.6 |
| 20260503172525 | 12 | 353 | 6.4 | 14.5 | 0.00 | 0.00 | 0.00 | 25 | 1019.8 |
| 20260503172025 | 12 | 349 | 3.2 | 17.7 | 0.00 | 0.00 | 0.00 | 26 | 1019.7 |
| 20260503171523 | 11 | 224 | 6.4 | 17.7 | 0.00 | 0.00 | 0.00 | 27 | 1019.9 |
| 20260503171022 | 11 | 264 | 3.2 | 12.9 | 0.00 | 0.00 | 0.00 | 27 | 1020.0 |
| 20260503170523 | 11 | 239 | 4.8 | 20.9 | 0.00 | 0.00 | 0.00 | 29 | 1020.0 |
| 20260503151005 | 8 | 323 | 4.8 | 14.5 | 0.00 | 0.00 | 0.00 | 35 | 1020.7 |
| 20260503150503 | 7 | 300 | 4.8 | 19.3 | 0.00 | 0.00 | 0.00 | 36 | 1020.8 |